IRNSS-1C

Last updated on Fri Dec 19 2025 00:02:51 GMT+0000 (Coordinated Universal Time)

1 40269U 14061A 25352.35633884 -.00000142 00000+0 00000+0 0 9996 2 40269 6.0557 92.5101 0018057 1.4373 204.5224 1.00274321 40871
UTC large
Height (km)
Speed (km/s)
/
Latitude / Longitude
Inclination (degrees)
Orbital Period (minutes)
Azimuth
Elevation
Range (km)
Doppler Factor

Next 0 passes for location: London (51.5072 / 0.1276)

Sorry there are no passes over London.